sat.trackr.live / text

‹ back to catalog

STARLINK-37251

NORAD 68514 · 2026-068G

PAYLOAD ACTIVE UNKNOWN

§ Identity

Operator
Country
US
Launch date
2026-03-30
Launch site
AFETR
Launch vehicle
Mass (kg)
RCS (m²)

Purposes: comms

External: N2YO · Heavens-Above · Gunter

§ Orbital elements

Epoch: 2026-05-25T03:16:14.134944Z

Period
93.37 min
Inclination
53.1576°
Eccentricity
0.0001259
Mean motion
15.42188385 rev/d
Perigee alt
438.8 km
Apogee alt
440.5 km
Semi-major
6,817.8 km
B*
7.5889e-4
RAAN
133.8901°
Arg perigee
67.5024°
Mean anomaly
292.6115°
Rev number
865

§ Raw data

STARLINK-372511 68514U 26068G   26145.13627471  .00032785  00000+0  75889-3 0  99992 68514  53.1576 133.8901 0001259  67.5024 292.6115 15.42188385  8659

JSON: /api/v1/satellites/68514 · /tle

For live sub-satellite position, see the globe view (requires WebGL).

§ Visibility from observer

Set your observer location to see the next 7 days of passes ≥ 10°. The values pass through the URL so the page stays shareable.

No JS? Fill the form by hand. The geolocation button needs JavaScript.